Location: Nebula Knoll Observatory
(43.6666°N, 71.0000°W)
Time: 14:45:01
(UTC-04:00)

Daily predictions for brighter satellites

Satellite Brightness Start Highest point End
(mag) Time Altitude Azimuth Time Altitude Azimuth Time Altitude Azimuth
Cosmos 1697 Rocket 2.9 20:31:55 10° NNW 20:37:37 79° WSW 20:43:15 10° SSE
Spot 2 Rocket 3.6 20:33:32 10° SSE 20:38:30 65° ENE 20:43:31 10° N
Okean 1 4.2 20:35:38 10° SSE 20:39:12 30° E 20:42:47 10° NNE
Cosmos 1725 Rocket 4.1 20:39:07 10° S 20:45:07 57° E 20:51:11 10° NNE
Lacrosse 5 rocket 4.0 20:42:47 10° NNW 20:45:25 15° N 20:47:59 10° NE
SJ-11-01 4.4 20:40:43 10° SSE 20:45:27 89° WSW 20:50:13 10° NNW
Cosmos 2360 Rocket 4.3 20:42:50 10° NNE 20:45:40 14° NE 20:48:29 10° ENE
USA 238 DEB 3.7 20:40:54 10° SSW 20:47:38 64° ESE 20:54:31 10° NE
USA 238 3.7 20:41:02 10° SSW 20:47:45 63° ESE 20:54:37 10° NE
Cosmos 1500 3.2 20:45:27 10° N 20:49:19 85° E 20:53:11 10° S
Cosmos 1980 Rocket 2.3 20:43:42 10° NNW 20:49:23 76° ENE 20:55:03 10° SSE
Resurs 1-3 3.9 20:45:26 10° S 20:49:47 69° WSW 20:54:11 10° NNW
Shenzhou-11 Module 2.1 20:48:41 10° WSW 20:51:36 53° SSE 20:54:31 10° E
BREEZE-M R/B 3.0 20:49:29 10° SW 20:53:56 40° SSE 20:56:39 10° ENE
ISS -2.8 20:52:38 10° SSW 20:55:23 25° SE 20:58:07 10° E
Cosmos 1812 3.7 20:57:26 10° SSW 21:01:09 49° WNW 21:04:55 10° N
YAOGAN 6 4.5 20:58:41 10° SSW 21:01:59 30° W 21:05:18 10° NNW
Cosmos 1666 3.4 21:00:40 10° N 21:04:19 39° ENE 21:07:35 12° SE
Cosmos 1743 3.4 21:02:00 10° N 21:05:35 36° ENE 21:08:39 13° SE
Cosmos 1833 Rocket 3.9 21:00:20 10° SW 21:05:45 47° WNW 21:11:12 10° NNE
H-2A R/B 2.5 21:03:35 11° SE 21:08:02 43° ENE 21:12:45 10° N
Cosmos 304 Rocket 3.8 21:05:10 10° S 21:09:53 60° ESE 21:14:38 10° NNE
DNEPR-1 R/B 3.6 21:06:52 10° SSW 21:10:59 56° ESE 21:15:38 10° NE
Helios 1B rocket 4.3 21:13:11 10° ENE 21:15:21 14° E 21:16:25 13° ESE
Abrixas rocket 3.7 21:13:35 10° S 21:15:47 17° SE 21:15:56 17° SE
Cosmos 1455 Rocket 4.4 21:12:53 10° NNE 21:16:26 24° ENE 21:18:58 15° ESE
ATLAS CENTAUR R/B 2.0 21:14:29 10° NW 21:18:57 60° WSW 21:23:09 13° SSE
ERS-2 4.3 21:16:30 10° SSW 21:19:31 24° W 21:22:34 10° NW
Cosmos 2208 Rocket 4.0 21:14:35 10° S 21:19:40 58° ESE 21:24:45 10° NNE
USA 234 3.5 21:13:40 10° NE 21:20:15 78° NW 21:26:48 10° WSW
Cosmos 1898 Rocket 3.8 21:15:55 10° NNW 21:21:07 54° ENE 21:25:14 16° SE
Iridium 2 4.3 21:18:49 15° SSE 21:21:34 38° E 21:25:09 10° NNE
NOSS 3-2 (A) 3.4 21:15:49 10° SSW 21:21:35 63° ESE 21:28:01 10° NE
Okean 1 Rocket 3.3 21:20:25 10° NNW 21:24:45 68° W 21:29:03 10° S
NOSS 3-2 (C) 3.6 21:19:23 10° S 21:24:59 48° ESE 21:31:11 10° NE
Cosmos 1242 Rocket 2.8 21:22:21 10° N 21:25:59 54° ENE 21:28:22 19° SSE
Cosmos 1975 Rocket 3.2 21:22:29 10° S 21:26:40 53° E 21:30:54 10° NNE
Cosmos 1378 Rocket 3.8 21:23:54 10° SSW 21:28:12 68° W 21:32:31 10° N
Cosmos 2233 Rocket 3.9 21:23:02 10° S 21:29:09 79° E 21:35:21 10° N
Resurs 01 Rocket 3.6 21:27:57 10° SSW 21:31:40 26° W 21:35:23 10° NW
ERS-1 Rocket 3.1 21:28:00 16° SSE 21:31:52 60° ENE 21:36:49 10° N
MetOp-A 4.1 21:27:26 12° SSE 21:32:25 89° ENE 21:37:48 10° NNW
Atlas Centaur 2 3.3 21:32:03 10° S 21:32:11 10° S 21:32:11 10° S
Tiangong 2 2.1 21:31:42 10° SSW 21:34:22 25° SSE 21:34:27 25° SSE
Cosmos 1975 3.0 21:30:40 10° NNW 21:34:44 73° W 21:38:14 13° S
Cosmos 2082 Rocket 4.2 21:30:59 10° WSW 21:36:01 32° NW 21:41:06 10° N
Cosmos 2322 Rocket 2.4 21:32:38 10° NNW 21:38:12 61° ENE 21:42:01 20° SE
COSMOS 2487 4.1 21:34:59 10° SW 21:38:15 37° WNW 21:41:33 10° N
Meteor 1-12 Rocket 4.4 21:35:59 10° NNW 21:41:56 84° W 21:47:14 14° S
Cosmos 1544 Rocket 4.1 21:39:06 10° N 21:43:20 44° ENE 21:45:37 24° SE
SL-16 R/B 2.2 21:39:00 10° NNW 21:44:41 72° ENE 21:48:26 22° SE
CSL-04 DEB 4.5 21:41:49 18° SSE 21:44:54 83° WSW 21:49:03 10° NNW
Cosmos 990 Rocket 4.0 21:45:09 10° NNW 21:50:22 70° ENE 21:53:30 24° SSE
Timation 2 Rocket 3.8 21:45:23 10° SSW 21:51:19 77° ESE 21:57:24 10° NNE
ARGOS 3.6 21:49:16 13° S 21:54:06 59° W 21:59:27 10° NNW
SPOT 5 2.8 21:54:03 27° SE 21:56:17 61° ENE 22:00:45 10° N
Meteor 1-19 Rocket 4.3 21:50:34 10° S 21:56:28 87° W 22:02:26 10° N
GPS 2-04 Rocket1 4.5 21:56:20 10° WSW 21:59:21 19° SSW 21:59:43 19° S
CENTAUR R/B 2.9 21:55:22 17° S 21:59:23 39° ESE 22:05:31 10° NE
Cosmos 1536 Rocket 4.2 21:58:29 29° SE 21:59:56 37° E 22:04:03 10° NNE
CZ-2C R/B 4.3 21:59:59 21° ESE 22:02:33 31° ENE 22:07:20 10° N
Landsat 7 4.1 22:00:47 28° SE 22:03:05 55° ENE 22:07:44 10° N
SJ 16-02 2.8 21:59:37 10° N 22:03:19 25° ENE 22:05:00 20° E
Helios 1A 2.9 22:03:55 31° SSE 22:05:51 85° E 22:10:02 10° NNW
Cosmos 2298 Rocket 4.0 22:00:48 10° NNW 22:06:07 76° ENE 22:08:51 29° SSE
Cosmos 2034 Rocket 4.3 22:04:53 25° SSE 22:08:10 49° E 22:14:04 10° NNE
ATLAS 3B R/B 3.5 22:02:23 10° SW 22:09:22 54° NW 22:16:07 10° NNE
Cosmos 1513 Rocket 4.5 22:07:10 23° SSE 22:11:01 64° E 22:17:06 10° NNE
Cosmos 1464 Rocket 4.0 22:09:53 20° S 22:14:29 76° E 22:20:53 10° N
USA 32 4.1 22:11:38 10° N 22:16:53 75° W 22:20:05 24° S
Terra 2.1 22:20:00 35° SE 22:21:44 56° ENE 22:26:24 10° N
Cosmos 2084 3.2 22:17:48 11° SSW 22:21:57 78° SE 22:26:03 10° NE
Cosmos 1937 Rocket 3.8 22:20:23 10° NNW 22:25:25 58° WSW 22:27:55 29° S
Lacrosse 5 rocket 2.7 22:21:51 10° NW 22:25:48 33° NNE 22:27:55 21° E
USA 245 4.3 22:25:00 25° SW 22:26:12 33° W 22:29:43 10° NNW
Aureole 2 Rocket 2.0 22:23:44 10° NNW 22:26:40 75° NNE 22:26:40 75° NNE
Meteor 1-23 Rocket 4.1 22:24:26 29° S 22:27:20 72° E 22:32:52 10° NNE
Shenzhou-11 Module 2.4 22:24:36 10° W 22:26:59 52° WSW 22:26:59 52° WSW
Cosmos 2360 Rocket 2.2 22:25:06 10° NNW 22:30:45 70° ENE 22:33:03 36° SE
ISS -2.8 22:28:32 10° WSW 22:31:43 47° NNW 22:34:54 10° NE
Cosmos 1980 Rocket 4.5 22:29:24 10° WNW 22:32:40 16° W 22:35:56 10° SW
CARTOSAT-1 3.5 22:31:49 47° SSE 22:33:01 82° ENE 22:37:21 10° N
CZ-4C R/B 3.8 22:26:58 10° NNW 22:33:26 39° NE 22:39:07 16° ESE
Cosmos 1891 Rocket 4.5 22:29:27 23° S 22:33:30 88° W 22:39:52 10° N
YAOGAN 11 4.3 22:34:20 45° SE 22:35:28 61° ENE 22:39:55 10° N
Cosmos 2219 Rocket 3.7 22:32:38 10° N 22:37:18 26° NE 22:40:01 18° E
Cosmos 1763 Rocket 4.1 22:34:33 10° SW 22:39:46 57° WNW 22:45:00 10° NNE
Cosmos 841 Rocket 3.6 22:37:55 20° SSW 22:41:33 77° WNW 22:46:51 10° NNE
Cosmos 2333 Rocket 3.7 22:38:11 10° N 22:42:56 26° NE 22:45:46 18° E
SPOT 1/Viking Rocket 4.1 22:40:44 28° SSW 22:43:13 51° W 22:48:16 10° NNW
Cosmos 540 Rocket 3.4 22:41:48 42° S 22:43:26 66° ESE 22:48:35 10° NNE
Okean 2 3.3 22:45:24 61° SE 22:45:49 66° E 22:49:58 10° NNE
COSMOS 2428 3.5 22:41:13 10° NNW 22:46:36 41° ENE 22:48:47 29° ESE
CZ-2C R/B 3.1 22:41:22 10° NNE 22:46:46 45° E 22:47:57 40° SE
H-2A R/B 3.8 22:44:12 12° SW 22:47:39 23° W 22:51:34 10° NW
Helios 1B rocket 3.1 22:46:54 10° N 22:50:57 52° WNW 22:52:46 29° SW
Cosmos 1340 Rocket 4.1 22:51:32 22° SW 22:53:37 37° WNW 22:57:26 10° N
IGS 5A 3.8 22:53:25 46° SW 22:54:15 56° W 22:58:22 10° NNW
Cosmos 1356 Rocket 3.4 22:55:31 61° ESE 22:55:42 62° E 22:59:57 10° NNE
Cosmos 1833 4.2 22:53:11 25° SSW 22:56:43 84° WNW 23:02:27 10° NNE
Cosmos 372 Rocket 3.9 22:55:03 10° NNW 23:00:13 80° ENE 23:01:22 54° SE
Cosmos 1025 Rocket 2.9 22:59:55 69° SSE 23:00:20 77° E 23:04:44 10° NNE
SAR-Lupe-4 4.0 23:07:07 55° NE 23:07:07 55° NE 23:10:18 10° N
Cosmos 1544 3.6 23:03:49 10° N 23:07:05 51° NE 23:07:05 51° NE
BREEZE M DEB (TANK) 4.1 23:08:27 10° WNW 23:13:13 22° WSW 23:13:13 22° WSW
Cosmos 2322 3.7 23:07:54 10° NNW 23:13:39 75° WSW 23:15:05 51° S
Cosmos 1125 Rocket 3.4 23:11:11 10° NNW 23:16:29 82° WSW 23:17:27 60° S
BREEZE-M R/B 4.2 23:14:42 10° WNW 23:16:40 24° NNW 23:16:40 24° NNW
Cosmos 2297 Rocket 4.1 23:18:38 15° E 23:18:38 15° E 23:21:06 10° ENE
Okean 1-7 Rocket 3.6 23:18:10 67° ESE 23:18:17 68° E 23:22:50 10° NNE
Intercosmos 25 4.3 23:19:41 42° E 23:19:41 42° E 23:23:06 10° NNE
Cosmos 2227 Rocket 3.9 23:21:10 18° E 23:21:10 18° E 23:24:16 10° ENE
H-2A R/B 3.8 23:20:32 20° ENE 23:21:05 21° ENE 23:24:19 10° NNE
Cosmos 2322 Rocket 4.0 23:17:46 10° NW 23:21:43 20° W 23:23:50 16° SW
Meteor 1-22 Rocket 4.1 23:16:29 10° N 23:21:52 63° ENE 23:22:45 54° ESE
Cosmos 1092 Rocket 4.0 23:16:20 10° N 23:22:42 80° W 23:24:43 46° S
Cosmos 1892 Rocket 4.1 23:25:27 44° ENE 23:25:27 44° ENE 23:29:10 10° NNE
Cosmos 2237 Rocket 3.5 23:20:31 10° N 23:25:33 31° NE 23:27:49 23° E
Cosmos 1066 Rocket 4.1 23:24:22 53° SSW 23:25:41 81° W 23:31:09 10° N
SL-16 R/B 4.2 23:24:37 10° WNW 23:28:07 17° W 23:30:19 14° SW
Cosmos 1766 3.7 23:27:33 10° N 23:31:01 57° NE 23:31:01 57° NE
Cosmos 1655 Rocket 4.2 23:33:30 10° N 23:39:51 60° E 23:41:22 48° SE
SJ 16-02 2.5 23:37:59 10° NW 23:41:57 32° W 23:42:00 32° WSW
CZ-2C R/B 4.0 23:41:02 33° SW 23:42:15 38° W 23:47:22 10° NNW
CZ-4B R/B 4.3 23:39:26 10° NNE 23:43:50 36° E 23:43:50 36° E
ADEOS Rocket 3.6 23:39:15 10° NNE 23:44:15 33° E 23:44:21 33° E
Cosmos 2219 3.1 23:44:27 63° SSE 23:45:09 71° ESE 23:50:54 10° NNE
Cosmos 1726 Rocket 3.6 23:44:05 10° N 23:48:18 77° WNW 23:48:18 77° WNW
CENTAUR R/B 3.5 23:44:01 10° WSW 23:49:54 46° NW 23:56:41 10° NNE
Mayak -0.4 23:46:47 10° NNE 23:50:06 41° ENE 23:50:06 41° ENE
Cosmos 2058 Rocket 3.1 23:47:38 10° N 23:52:00 77° NE 23:52:00 77° NE
